Location: Bühlhof
(48.7849°N, 8.6361°E)
Time: 13:57:35
(UTC+00:00)

Thor Agena Rocket - Visible Passes

Search period start: 11 April 2026 00:00
Search period end: 21 April 2026 00:00
Orbit: 754 x 802 km, 99.1° (Epoch: 11 April)

Date Brightness Start Highest point End Pass type
(mag) Time Alt. Az. Time Alt. Az. Time Alt. Az.
12 Apr 6.8 18:55:29 10° WSW 18:57:34 12° W 18:59:38 10° WNW visible
15 Apr 6.7 18:55:47 10° WSW 18:57:52 12° W 18:59:58 10° WNW visible
18 Apr 6.7 18:56:05 10° WSW 18:58:10 12° W 19:00:17 10° WNW visible
